Location: C�an Torras
(41.5052°N, 1.9280°E)
Time: 01:45:33
(UTC+00:00)

Cosmos 1455 - Pass Details

Date: 20 January 2021
Orbit: 499 x 521 km, 82.5° (Epoch: 08 March)

Event Time Altitude Azimuth Distance (km) Brightness Sun altitude
Rises 17:22:26 0° 13° (NNE) 2,628 5.4 -5.8°
Reaches altitude 10° 17:25:39 10° 43° (NE) 1,742 4.3 -6.4°
Maximum altitude 17:27:24 13° 70° (ENE) 1,574 4.0 -6.7°
Drops below altitude 10° 17:29:10 10° 98° (E) 1,741 4.3 -7.0°
Sets 17:32:22 0° 128° (SE) 2,627 5.5 -7.5°
